sat.trackr.live / text

‹ back to catalog

STARLINK-32092

NORAD 59700 · 2024-086U

PAYLOAD ACTIVE UNKNOWN

§ Identity

Operator
Country
US
Launch date
2024-05-08
Launch site
AFETR
Launch vehicle
Mass (kg)
RCS (m²)

Purposes: comms

External: N2YO · Heavens-Above · Gunter

§ Orbital elements

Epoch: 2026-05-24T22:44:57.359904Z

Period
94.27 min
Inclination
43.0034°
Eccentricity
0.0000785
Mean motion
15.27594340 rev/d
Perigee alt
482.5 km
Apogee alt
483.5 km
Semi-major
6,861.1 km
B*
-8.0181e-5
RAAN
349.3326°
Arg perigee
269.9855°
Mean anomaly
90.0907°
Rev number
11,577

§ Raw data

STARLINK-320921 59700U 24086U   26144.94788611 -.00002469  00000+0 -80181-4 0  99962 59700  43.0034 349.3326 0000785 269.9855  90.0907 15.27594340115777

JSON: /api/v1/satellites/59700 · /tle

For live sub-satellite position, see the globe view (requires WebGL).

§ Visibility from observer

Set your observer location to see the next 7 days of passes ≥ 10°. The values pass through the URL so the page stays shareable.

No JS? Fill the form by hand. The geolocation button needs JavaScript.